Flag for U.S.A. Weather past 2 weeks in Mesquite, Texas, U.S.A.

Now
37 °F

Fog.


Feels Like: 30 °F
Forecast: 32 / 41 °F
Wind: 10 mph from North

Location: Mesquite Metro Airport

Current Time: Mar 1, 2015 at 4:06:13 PM

Latest Report: Mar 1, 2015 at 2:55 PM


Visibility: 5 mi

Pressure: 30.31 "Hg

Humidity: 93%

Dew point: 36 °F

Location of MesquiteLocation

Historic Weather in Mesquite — Graph

°F

Mesquite temperature yesterday

Maximum temperature yesterday: 32 °F (at 4:50 PM)
Minimum temperature yesterday: 27 °F (at 12:15 AM)
Average temperature yesterday: 29 °F

Past Weeks' High & Low Weather Summary

 TemperatureHumidityPressure
High79 °F (Feb 14, 3:50 PM)100% (Feb 18, 7:50 AM)30.57 "Hg (Feb 18, 7:50 AM)
Low26 °F (Feb 24, 12:55 AM)21% (Feb 14, 3:50 PM)29.71 "Hg (Feb 21, 3:55 AM)
Average39 °F79%30.19 "Hg
* Reported Feb 14 12:50 PM — Mar 1 12:50 PM, Mesquite, Weather by CustomWeather, © 2015

Note: Actual official high and low records may vary slightly from our data, if they occured in-between our weather recording intervals... More about our weather records

Advertising

Mesquite weather history for previous 24 hours

 ConditionsComfort  
Time TempWeatherWind HumidityBarometerVisibility
12:50 PM
Sun, Mar 1
37 °FLow clouds.10 mph93%30.34 "Hg7 mi
11:50 AM37 °FLow clouds.7 mph93%30.34 "Hg7 mi
10:50 AM36 °FFog.7 mph100%30.37 "Hg3 mi
9:50 AM36 °FRain. Fog.7 mph100%30.37 "Hg2 mi
8:50 AM36 °FDrizzle. Fog.7 mph93%30.34 "Hg2 mi
7:50 AM34 °FDrizzle. Fog.6 mph100%30.34 "Hg1 mi
6:47 AM34 °FDrizzle. Fog.6 mph100%30.32 "Hg1 mi
4:35 AM33 °FMostly cloudy.No wind96%30.30 "Hg2 mi
4:15 AM33 °FOvercast.No wind98%30.29 "Hg3 mi
3:55 AM33 °FMostly cloudy.No wind98%30.29 "Hg2 mi
3:35 AM32 °FOvercast.No wind98%30.29 "Hg4 mi
3:15 AM32 °FOvercast.5 mph98%30.29 "Hg3 mi
2:55 AM32 °FMostly cloudy.3 mph98%30.30 "Hg5 mi
2:15 AM32 °FMostly cloudy.3 mph98%30.31 "Hg5 mi
1:55 AM32 °FOvercast.No wind98%30.32 "Hg4 mi
1:35 AM32 °FOvercast.No wind98%30.32 "Hg4 mi
1:15 AM32 °FOvercast.3 mph98%30.32 "Hg5 mi
12:55 AM32 °FMostly cloudy.No wind96%30.32 "Hg5 mi
12:35 AM32 °FMostly cloudy.No wind98%30.34 "Hg4 mi
12:15 AM32 °FMostly cloudy.5 mph97%30.34 "Hg5 mi
11:55 PM
Sat, Feb 28
32 °FMostly cloudy.3 mph96%30.34 "Hg5 mi
11:15 PM32 °FOvercast.No wind96%30.35 "Hg3 mi
10:55 PM32 °FMostly cloudy.5 mph96%30.35 "Hg5 mi
10:35 PM32 °FMostly cloudy.5 mph95%30.35 "Hg5 mi
10:15 PM32 °FMostly cloudy.6 mph95%30.36 "Hg7 mi
9:55 PM32 °FMostly cloudy.6 mph95%30.35 "Hg7 mi
9:15 PM32 °FMostly cloudy.6 mph95%30.35 "Hg4 mi
8:55 PM32 °FMostly cloudy.6 mph95%30.34 "Hg7 mi
7:50 PM30 °FMostly cloudy.7 mph100%30.33 "Hg10 mi
6:50 PM32 °FLow clouds.5 mph93%30.34 "Hg7 mi
5:50 PM30 °FMostly cloudy.5 mph100%30.32 "Hg7 mi
4:50 PM32 °FOvercast.3 mph93%30.32 "Hg5 mi
Weather by CustomWeather, © 2015

See weather overviewHow to use our weather pages